owner,sensor,date,latitude,longitude,vertical_datum,wind_speed,wind_to_direction,wind_speed_of_gust,qcFlag 
DISL,ioos:station:DISL:MHPA:1,2016-06-01T00:00:00Z,30.6671,-87.9365,8.5,2.1,346.7,-9999.0,'1111122,1111122,1111122' 
DISL,ioos:station:DISL:MHPA:1,2016-06-01T00:30:00Z,30.6671,-87.9365,8.5,1.14,26.08,-9999.0,'1111122,1111122,1111122' 
DISL,ioos:station:DISL:MHPA:1,2016-06-01T01:00:00Z,30.6671,-87.9365,8.5,1.85,169.8,-9999.0,'1111122,1111122,1111122' 
DISL,ioos:station:DISL:MHPA:1,2016-06-01T01:30:00Z,30.6671,-87.9365,8.5,0.57,323.7,-9999.0,'1111122,1111122,1111122' 
DISL,ioos:station:DISL:MHPA:1,2016-06-01T02:00:00Z,30.6671,-87.9365,8.5,0.53,344.8,-9999.0,'1111122,1111122,1111122' 
DISL,ioos:station:DISL:MHPA:1,2016-06-01T02:30:00Z,30.6671,-87.9365,8.5,1.01,3.158,-9999.0,'1111122,1111122,1111122' 
DISL,ioos:station:DISL:MHPA:1,2016-06-01T03:00:00Z,30.6671,-87.9365,8.5,0.91,126.6,-9999.0,'1111122,1111122,1111122' 
DISL,ioos:station:DISL:MHPA:1,2016-06-01T03:30:00Z,30.6671,-87.9365,8.5,0.72,117.9,-9999.0,'1111122,1111122,1111122' 
DISL,ioos:station:DISL:MHPA:1,2016-06-01T04:00:00Z,30.6671,-87.9365,8.5,0.68,82.7,-9999.0,'1111122,1111122,1111122' 
DISL,ioos:station:DISL:MHPA:1,2016-06-01T04:30:00Z,30.6671,-87.9365,8.5,0.29,101.8,-9999.0,'1111122,1111122,1111122' 
DISL,ioos:station:DISL:MHPA:1,2016-06-01T05:00:00Z,30.6671,-87.9365,8.5,0.32,92.7,-9999.0,'1111122,1111122,1111122' 
DISL,ioos:station:DISL:MHPA:1,2016-06-01T05:30:00Z,30.6671,-87.9365,8.5,0.22,120.9,-9999.0,'1111122,1111122,1111122' 
DISL,ioos:station:DISL:MHPA:1,2016-06-01T06:00:00Z,30.6671,-87.9365,8.5,0.62,81.6,-9999.0,'1111122,1111122,1111122' 
DISL,ioos:station:DISL:MHPA:1,2016-06-01T06:30:00Z,30.6671,-87.9365,8.5,0.22,174.0,-9999.0,'1111122,1111122,1111122' 
DISL,ioos:station:DISL:MHPA:1,2016-06-01T07:00:00Z,30.6671,-87.9365,8.5,0.95,73.83,-9999.0,'1111122,1111122,1111122' 
DISL,ioos:station:DISL:MHPA:1,2016-06-01T07:30:00Z,30.6671,-87.9365,8.5,0.57,61.48,-9999.0,'1111122,1111122,1111122' 
DISL,ioos:station:DISL:MHPA:1,2016-06-01T08:00:00Z,30.6671,-87.9365,8.5,0.91,110.5,-9999.0,'1111122,1111122,1111122' 
DISL,ioos:station:DISL:MHPA:1,2016-06-01T08:30:00Z,30.6671,-87.9365,8.5,0.48,108.7,-9999.0,'1111122,1111122,1111122' 
DISL,ioos:station:DISL:MHPA:1,2016-06-01T09:00:00Z,30.6671,-87.9365,8.5,0.63,18.72,-9999.0,'1111122,1111122,1111122' 
DISL,ioos:station:DISL:MHPA:1,2016-06-01T09:30:00Z,30.6671,-87.9365,8.5,0.93,24.21,-9999.0,'1111122,1111122,1111122' 
DISL,ioos:station:DISL:MHPA:1,2016-06-01T10:00:00Z,30.6671,-87.9365,8.5,1.01,20.4,-9999.0,'1111122,1111122,1111122' 
DISL,ioos:station:DISL:MHPA:1,2016-06-01T10:30:00Z,30.6671,-87.9365,8.5,0.35,65.86,-9999.0,'1111122,1111122,1111122' 
DISL,ioos:station:DISL:MHPA:1,2016-06-01T11:00:00Z,30.6671,-87.9365,8.5,1.02,36.23,-9999.0,'1111122,1111122,1111122' 
DISL,ioos:station:DISL:MHPA:1,2016-06-01T11:30:00Z,30.6671,-87.9365,8.5,0.51,71.8,-9999.0,'1111122,1111122,1111122' 
DISL,ioos:station:DISL:MHPA:1,2016-06-01T12:00:00Z,30.6671,-87.9365,8.5,0.06,94.1,-9999.0,'1111122,1111122,1111122' 
DISL,ioos:station:DISL:MHPA:1,2016-06-01T12:30:00Z,30.6671,-87.9365,8.5,0.0,0.0,-9999.0,'1114422,1114422,1111122' 
DISL,ioos:station:DISL:MHPA:1,2016-06-01T13:00:00Z,30.6671,-87.9365,8.5,0.48,21.39,-9999.0,'1111122,1111122,1111122' 
DISL,ioos:station:DISL:MHPA:1,2016-06-01T13:30:00Z,30.6671,-87.9365,8.5,0.73,305.7,-9999.0,'1111122,1111122,1111122' 
DISL,ioos:station:DISL:MHPA:1,2016-06-01T14:00:00Z,30.6671,-87.9365,8.5,0.81,5.18,-9999.0,'1111122,1111122,1111122' 
DISL,ioos:station:DISL:MHPA:1,2016-06-01T14:30:00Z,30.6671,-87.9365,8.5,1.32,231.3,-9999.0,'1111122,1111122,1111122' 
DISL,ioos:station:DISL:MHPA:1,2016-06-01T15:00:00Z,30.6671,-87.9365,8.5,1.59,240.9,-9999.0,'1111122,1111122,1111122' 
DISL,ioos:station:DISL:MHPA:1,2016-06-01T15:30:00Z,30.6671,-87.9365,8.5,2.14,233.5,-9999.0,'1111122,1111122,1111122' 
DISL,ioos:station:DISL:MHPA:1,2016-06-01T16:00:00Z,30.6671,-87.9365,8.5,1.95,206.8,-9999.0,'1111122,1111122,1111122' 
DISL,ioos:station:DISL:MHPA:1,2016-06-01T16:30:00Z,30.6671,-87.9365,8.5,2.62,227.8,-9999.0,'1111122,1111122,1111122' 
DISL,ioos:station:DISL:MHPA:1,2016-06-01T17:00:00Z,30.6671,-87.9365,8.5,3.15,221.6,-9999.0,'1111122,1111122,1111122' 
DISL,ioos:station:DISL:MHPA:1,2016-06-01T17:30:00Z,30.6671,-87.9365,8.5,3.28,204.7,-9999.0,'1111122,1111122,1111122' 
DISL,ioos:station:DISL:MHPA:1,2016-06-01T18:00:00Z,30.6671,-87.9365,8.5,4.74,203.8,-9999.0,'1111122,1111122,1111122' 
DISL,ioos:station:DISL:MHPA:1,2016-06-01T18:30:00Z,30.6671,-87.9365,8.5,4.96,197.3,-9999.0,'1111122,1111122,1111122' 
DISL,ioos:station:DISL:MHPA:1,2016-06-01T19:00:00Z,30.6671,-87.9365,8.5,5.29,192.3,-9999.0,'1111122,1111122,1111122' 
DISL,ioos:station:DISL:MHPA:1,2016-06-01T19:30:00Z,30.6671,-87.9365,8.5,6.18,186.1,-9999.0,'1111122,1111122,1111122' 
DISL,ioos:station:DISL:MHPA:1,2016-06-01T20:00:00Z,30.6671,-87.9365,8.5,7.09,177.3,-9999.0,'1111122,1111122,1111122' 
DISL,ioos:station:DISL:MHPA:1,2016-06-01T20:30:00Z,30.6671,-87.9365,8.5,6.28,165.2,-9999.0,'1111122,1111122,1111122' 
DISL,ioos:station:DISL:MHPA:1,2016-06-01T21:00:00Z,30.6671,-87.9365,8.5,5.15,165.8,-9999.0,'1111122,1111122,1111122' 
DISL,ioos:station:DISL:MHPA:1,2016-06-01T21:30:00Z,30.6671,-87.9365,8.5,5.51,179.4,-9999.0,'1111122,1111122,1111122' 
DISL,ioos:station:DISL:MHPA:1,2016-06-01T22:00:00Z,30.6671,-87.9365,8.5,5.67,191.4,-9999.0,'1111122,1111122,1111122' 
DISL,ioos:station:DISL:MHPA:1,2016-06-01T22:30:00Z,30.6671,-87.9365,8.5,5.15,179.3,-9999.0,'1111122,1111122,1111122' 
DISL,ioos:station:DISL:MHPA:1,2016-06-01T23:00:00Z,30.6671,-87.9365,8.5,5.48,172.6,-9999.0,'1111122,1111122,1111122' 
DISL,ioos:station:DISL:MHPA:1,2016-06-01T23:30:00Z,30.6671,-87.9365,8.5,5.03,182.9,-9999.0,'1111122,1111122,1111122' 
DISL,ioos:station:DISL:MHPA:1,2016-06-02T00:00:00Z,30.6671,-87.9365,8.5,4.77,185.9,-9999.0,'1111122,1111122,1111122' 
DISL,ioos:station:DISL:MHPA:1,2016-06-02T00:30:00Z,30.6671,-87.9365,8.5,4.44,187.8,-9999.0,'1111122,1111122,1111122' 
DISL,ioos:station:DISL:MHPA:1,2016-06-02T01:00:00Z,30.6671,-87.9365,8.5,4.04,200.6,-9999.0,'1111122,1111122,1111122' 
DISL,ioos:station:DISL:MHPA:1,2016-06-02T01:30:00Z,30.6671,-87.9365,8.5,3.35,201.9,-9999.0,'1111122,1111122,1111122' 
DISL,ioos:station:DISL:MHPA:1,2016-06-02T02:00:00Z,30.6671,-87.9365,8.5,3.12,192.4,-9999.0,'1111122,1111122,1111122' 
DISL,ioos:station:DISL:MHPA:1,2016-06-02T02:30:00Z,30.6671,-87.9365,8.5,3.18,189.0,-9999.0,'1111122,1111122,1111122' 
DISL,ioos:station:DISL:MHPA:1,2016-06-02T03:00:00Z,30.6671,-87.9365,8.5,2.54,203.2,-9999.0,'1111122,1111122,1111122' 
DISL,ioos:station:DISL:MHPA:1,2016-06-02T03:30:00Z,30.6671,-87.9365,8.5,1.89,110.5,-9999.0,'1111122,1111122,1111122' 
DISL,ioos:station:DISL:MHPA:1,2016-06-02T04:00:00Z,30.6671,-87.9365,8.5,1.43,94.7,-9999.0,'1111122,1111122,1111122' 
DISL,ioos:station:DISL:MHPA:1,2016-06-02T04:30:00Z,30.6671,-87.9365,8.5,1.81,102.0,-9999.0,'1111122,1111122,1111122' 
DISL,ioos:station:DISL:MHPA:1,2016-06-02T05:00:00Z,30.6671,-87.9365,8.5,1.33,97.5,-9999.0,'1111122,1111122,1111122' 
DISL,ioos:station:DISL:MHPA:1,2016-06-02T05:30:00Z,30.6671,-87.9365,8.5,1.32,82.5,-9999.0,'1111122,1111122,1111122' 
DISL,ioos:station:DISL:MHPA:1,2016-06-02T06:00:00Z,30.6671,-87.9365,8.5,1.89,107.2,-9999.0,'1111122,1111122,1111122' 
DISL,ioos:station:DISL:MHPA:1,2016-06-02T06:30:00Z,30.6671,-87.9365,8.5,1.25,105.6,-9999.0,'1111122,1111122,1111122' 
DISL,ioos:station:DISL:MHPA:1,2016-06-02T07:00:00Z,30.6671,-87.9365,8.5,1.21,91.3,-9999.0,'1111122,1111122,1111122' 
DISL,ioos:station:DISL:MHPA:1,2016-06-02T07:30:00Z,30.6671,-87.9365,8.5,1.3,89.0,-9999.0,'1111122,1111122,1111122' 
DISL,ioos:station:DISL:MHPA:1,2016-06-02T08:00:00Z,30.6671,-87.9365,8.5,1.0,99.0,-9999.0,'1111122,1111122,1111122' 
DISL,ioos:station:DISL:MHPA:1,2016-06-02T08:30:00Z,30.6671,-87.9365,8.5,1.32,101.1,-9999.0,'1111122,1111122,1111122' 
DISL,ioos:station:DISL:MHPA:1,2016-06-02T09:00:00Z,30.6671,-87.9365,8.5,0.86,329.9,-9999.0,'1111122,1111122,1111122' 
DISL,ioos:station:DISL:MHPA:1,2016-06-02T09:30:00Z,30.6671,-87.9365,8.5,0.88,26.39,-9999.0,'1111122,1111122,1111122' 
DISL,ioos:station:DISL:MHPA:1,2016-06-02T10:00:00Z,30.6671,-87.9365,8.5,0.94,48.68,-9999.0,'1111122,1111122,1111122' 
DISL,ioos:station:DISL:MHPA:1,2016-06-02T10:30:00Z,30.6671,-87.9365,8.5,0.97,74.54,-9999.0,'1111122,1111122,1111122' 
DISL,ioos:station:DISL:MHPA:1,2016-06-02T11:00:00Z,30.6671,-87.9365,8.5,0.3,75.52,-9999.0,'1111122,1111122,1111122' 
DISL,ioos:station:DISL:MHPA:1,2016-06-02T11:30:00Z,30.6671,-87.9365,8.5,0.92,94.3,-9999.0,'1111122,1111122,1111122' 
DISL,ioos:station:DISL:MHPA:1,2016-06-02T12:00:00Z,30.6671,-87.9365,8.5,0.56,77.22,-9999.0,'1111122,1111122,1111122' 
DISL,ioos:station:DISL:MHPA:1,2016-06-02T12:30:00Z,30.6671,-87.9365,8.5,1.23,80.3,-9999.0,'1111122,1111122,1111122' 
DISL,ioos:station:DISL:MHPA:1,2016-06-02T13:00:00Z,30.6671,-87.9365,8.5,1.13,112.8,-9999.0,'1111122,1111122,1111122' 
DISL,ioos:station:DISL:MHPA:1,2016-06-02T13:30:00Z,30.6671,-87.9365,8.5,1.46,131.3,-9999.0,'1111122,1111122,1111122' 
DISL,ioos:station:DISL:MHPA:1,2016-06-02T14:00:00Z,30.6671,-87.9365,8.5,1.93,158.9,-9999.0,'1111122,1111122,1111122' 
DISL,ioos:station:DISL:MHPA:1,2016-06-02T14:30:00Z,30.6671,-87.9365,8.5,1.7,186.4,-9999.0,'1111122,1111122,1111122' 
DISL,ioos:station:DISL:MHPA:1,2016-06-02T15:00:00Z,30.6671,-87.9365,8.5,2.5,205.0,-9999.0,'1111122,1111122,1111122' 
DISL,ioos:station:DISL:MHPA:1,2016-06-02T15:30:00Z,30.6671,-87.9365,8.5,3.05,196.1,-9999.0,'1111122,1111122,1111122' 
DISL,ioos:station:DISL:MHPA:1,2016-06-02T16:00:00Z,30.6671,-87.9365,8.5,2.56,193.8,-9999.0,'1111122,1111122,1111122' 
DISL,ioos:station:DISL:MHPA:1,2016-06-02T16:30:00Z,30.6671,-87.9365,8.5,2.96,199.3,-9999.0,'1111122,1111122,1111122' 
DISL,ioos:station:DISL:MHPA:1,2016-06-02T17:00:00Z,30.6671,-87.9365,8.5,3.95,200.3,-9999.0,'1111122,1111122,1111122' 
DISL,ioos:station:DISL:MHPA:1,2016-06-02T17:30:00Z,30.6671,-87.9365,8.5,4.57,199.3,-9999.0,'1111122,1111122,1111122' 
DISL,ioos:station:DISL:MHPA:1,2016-06-02T18:00:00Z,30.6671,-87.9365,8.5,5.31,201.1,-9999.0,'1111122,1111122,1111122' 
DISL,ioos:station:DISL:MHPA:1,2016-06-02T18:30:00Z,30.6671,-87.9365,8.5,6.32,194.5,-9999.0,'1111122,1111122,1111122' 
DISL,ioos:station:DISL:MHPA:1,2016-06-02T19:00:00Z,30.6671,-87.9365,8.5,6.95,192.9,-9999.0,'1111122,1111122,1111122' 
DISL,ioos:station:DISL:MHPA:1,2016-06-02T19:30:00Z,30.6671,-87.9365,8.5,7.71,188.7,-9999.0,'1111122,1111122,1111122' 
DISL,ioos:station:DISL:MHPA:1,2016-06-02T20:00:00Z,30.6671,-87.9365,8.5,7.84,190.9,-9999.0,'1111122,1111122,1111122' 
DISL,ioos:station:DISL:MHPA:1,2016-06-02T20:30:00Z,30.6671,-87.9365,8.5,8.11,195.5,-9999.0,'1111122,1111122,1111122' 
DISL,ioos:station:DISL:MHPA:1,2016-06-02T21:00:00Z,30.6671,-87.9365,8.5,7.82,195.3,-9999.0,'1111122,1111122,1111122' 
DISL,ioos:station:DISL:MHPA:1,2016-06-02T21:30:00Z,30.6671,-87.9365,8.5,7.86,231.6,-9999.0,'1111122,1111122,1111122' 
DISL,ioos:station:DISL:MHPA:1,2016-06-02T22:00:00Z,30.6671,-87.9365,8.5,7.0,187.6,-9999.0,'1111122,1111122,1111122' 
DISL,ioos:station:DISL:MHPA:1,2016-06-02T22:30:00Z,30.6671,-87.9365,8.5,6.51,182.4,-9999.0,'1111122,1111122,1111122' 
DISL,ioos:station:DISL:MHPA:1,2016-06-02T23:00:00Z,30.6671,-87.9365,8.5,6.72,173.2,-9999.0,'1111122,1111122,1111122' 
DISL,ioos:station:DISL:MHPA:1,2016-06-02T23:30:00Z,30.6671,-87.9365,8.5,6.06,172.8,-9999.0,'1111122,1111122,1111122' 
DISL,ioos:station:DISL:MHPA:1,2016-06-03T00:00:00Z,30.6671,-87.9365,8.5,5.48,184.6,-9999.0,'1111122,1111122,1111122' 
DISL,ioos:station:DISL:MHPA:1,2016-06-03T00:30:00Z,30.6671,-87.9365,8.5,4.59,173.4,-9999.0,'1111122,1111122,1111122' 
DISL,ioos:station:DISL:MHPA:1,2016-06-03T01:00:00Z,30.6671,-87.9365,8.5,3.89,186.6,-9999.0,'1111122,1111122,1111122' 
DISL,ioos:station:DISL:MHPA:1,2016-06-03T01:30:00Z,30.6671,-87.9365,8.5,3.88,184.7,-9999.0,'1111122,1111122,1111122' 
DISL,ioos:station:DISL:MHPA:1,2016-06-03T02:00:00Z,30.6671,-87.9365,8.5,3.12,177.5,-9999.0,'1111122,1111122,1111122' 
DISL,ioos:station:DISL:MHPA:1,2016-06-03T02:30:00Z,30.6671,-87.9365,8.5,2.39,119.2,-9999.0,'1111122,1111122,1111122' 
DISL,ioos:station:DISL:MHPA:1,2016-06-03T03:00:00Z,30.6671,-87.9365,8.5,1.74,104.1,-9999.0,'1111122,1111122,1111122' 
DISL,ioos:station:DISL:MHPA:1,2016-06-03T03:30:00Z,30.6671,-87.9365,8.5,1.96,135.8,-9999.0,'1111122,1111122,1111122' 
DISL,ioos:station:DISL:MHPA:1,2016-06-03T04:00:00Z,30.6671,-87.9365,8.5,1.76,103.5,-9999.0,'1111122,1111122,1111122' 
DISL,ioos:station:DISL:MHPA:1,2016-06-03T04:30:00Z,30.6671,-87.9365,8.5,2.05,110.3,-9999.0,'1111122,1111122,1111122' 
DISL,ioos:station:DISL:MHPA:1,2016-06-03T05:00:00Z,30.6671,-87.9365,8.5,3.11,128.3,-9999.0,'1111122,1111122,1111122' 
DISL,ioos:station:DISL:MHPA:1,2016-06-03T05:30:00Z,30.6671,-87.9365,8.5,2.17,117.5,-9999.0,'1111122,1111122,1111122' 
DISL,ioos:station:DISL:MHPA:1,2016-06-03T06:00:00Z,30.6671,-87.9365,8.5,2.24,102.7,-9999.0,'1111122,1111122,1111122' 
DISL,ioos:station:DISL:MHPA:1,2016-06-03T06:30:00Z,30.6671,-87.9365,8.5,1.54,100.0,-9999.0,'1111122,1111122,1111122' 
DISL,ioos:station:DISL:MHPA:1,2016-06-03T07:00:00Z,30.6671,-87.9365,8.5,1.79,129.7,-9999.0,'1111122,1111122,1111122' 
DISL,ioos:station:DISL:MHPA:1,2016-06-03T07:30:00Z,30.6671,-87.9365,8.5,1.91,175.0,-9999.0,'1111122,1111122,1111122' 
DISL,ioos:station:DISL:MHPA:1,2016-06-03T08:00:00Z,30.6671,-87.9365,8.5,1.93,164.2,-9999.0,'1111122,1111122,1111122' 
DISL,ioos:station:DISL:MHPA:1,2016-06-03T08:30:00Z,30.6671,-87.9365,8.5,1.83,176.1,-9999.0,'1111122,1111122,1111122' 
DISL,ioos:station:DISL:MHPA:1,2016-06-03T09:00:00Z,30.6671,-87.9365,8.5,1.91,170.2,-9999.0,'1111122,1111122,1111122' 
DISL,ioos:station:DISL:MHPA:1,2016-06-03T09:30:00Z,30.6671,-87.9365,8.5,2.15,174.2,-9999.0,'1111122,1111122,1111122' 
DISL,ioos:station:DISL:MHPA:1,2016-06-03T10:00:00Z,30.6671,-87.9365,8.5,2.32,166.7,-9999.0,'1111122,1111122,1111122' 
DISL,ioos:station:DISL:MHPA:1,2016-06-03T10:30:00Z,30.6671,-87.9365,8.5,2.54,143.1,-9999.0,'1111122,1111122,1111122' 
DISL,ioos:station:DISL:MHPA:1,2016-06-03T11:00:00Z,30.6671,-87.9365,8.5,1.81,106.4,-9999.0,'1111122,1111122,1111122' 
DISL,ioos:station:DISL:MHPA:1,2016-06-03T11:30:00Z,30.6671,-87.9365,8.5,2.61,102.4,-9999.0,'1111122,1111122,1111122' 
DISL,ioos:station:DISL:MHPA:1,2016-06-03T12:00:00Z,30.6671,-87.9365,8.5,2.22,117.2,-9999.0,'1111122,1111122,1111122' 
DISL,ioos:station:DISL:MHPA:1,2016-06-03T12:30:00Z,30.6671,-87.9365,8.5,2.38,110.4,-9999.0,'1111122,1111122,1111122' 
DISL,ioos:station:DISL:MHPA:1,2016-06-03T13:00:00Z,30.6671,-87.9365,8.5,2.2,107.9,-9999.0,'1111122,1111122,1111122' 
DISL,ioos:station:DISL:MHPA:1,2016-06-03T13:30:00Z,30.6671,-87.9365,8.5,3.34,131.1,-9999.0,'1111122,1111122,1111122' 
DISL,ioos:station:DISL:MHPA:1,2016-06-03T14:00:00Z,30.6671,-87.9365,8.5,2.4,140.8,-9999.0,'1111122,1111122,1111122' 
DISL,ioos:station:DISL:MHPA:1,2016-06-03T14:30:00Z,30.6671,-87.9365,8.5,2.44,140.7,-9999.0,'1111122,1111122,1111122' 
DISL,ioos:station:DISL:MHPA:1,2016-06-03T15:00:00Z,30.6671,-87.9365,8.5,2.31,168.9,-9999.0,'1111122,1111122,1111122' 
DISL,ioos:station:DISL:MHPA:1,2016-06-03T15:30:00Z,30.6671,-87.9365,8.5,2.18,212.1,-9999.0,'1111122,1111122,1111122' 
DISL,ioos:station:DISL:MHPA:1,2016-06-03T16:00:00Z,30.6671,-87.9365,8.5,2.06,211.0,-9999.0,'1111122,1111122,1111122' 
DISL,ioos:station:DISL:MHPA:1,2016-06-03T16:30:00Z,30.6671,-87.9365,8.5,3.46,214.8,-9999.0,'1111122,1111122,1111122' 
DISL,ioos:station:DISL:MHPA:1,2016-06-03T17:00:00Z,30.6671,-87.9365,8.5,2.91,214.4,-9999.0,'1111122,1111122,1111122' 
DISL,ioos:station:DISL:MHPA:1,2016-06-03T17:30:00Z,30.6671,-87.9365,8.5,3.85,214.2,-9999.0,'1111122,1111122,1111122' 
DISL,ioos:station:DISL:MHPA:1,2016-06-03T18:00:00Z,30.6671,-87.9365,8.5,5.36,204.7,-9999.0,'1111122,1111122,1111122' 
DISL,ioos:station:DISL:MHPA:1,2016-06-03T18:30:00Z,30.6671,-87.9365,8.5,6.69,194.6,-9999.0,'1111122,1111122,1111122' 
DISL,ioos:station:DISL:MHPA:1,2016-06-03T19:00:00Z,30.6671,-87.9365,8.5,6.94,194.7,-9999.0,'1111122,1111122,1111122' 
DISL,ioos:station:DISL:MHPA:1,2016-06-03T19:30:00Z,30.6671,-87.9365,8.5,7.71,191.5,-9999.0,'1111122,1111122,1111122' 
DISL,ioos:station:DISL:MHPA:1,2016-06-03T20:00:00Z,30.6671,-87.9365,8.5,7.09,194.7,-9999.0,'1111122,1111122,1111122' 
DISL,ioos:station:DISL:MHPA:1,2016-06-03T20:30:00Z,30.6671,-87.9365,8.5,7.42,190.6,-9999.0,'1111122,1111122,1111122' 
DISL,ioos:station:DISL:MHPA:1,2016-06-03T21:00:00Z,30.6671,-87.9365,8.5,7.85,192.1,-9999.0,'1111122,1111122,1111122' 
DISL,ioos:station:DISL:MHPA:1,2016-06-03T21:30:00Z,30.6671,-87.9365,8.5,7.38,188.3,-9999.0,'1111122,1111122,1111122' 
DISL,ioos:station:DISL:MHPA:1,2016-06-03T22:00:00Z,30.6671,-87.9365,8.5,7.17,183.2,-9999.0,'1111122,1111122,1111122' 
DISL,ioos:station:DISL:MHPA:1,2016-06-03T22:30:00Z,30.6671,-87.9365,8.5,6.52,171.8,-9999.0,'1111122,1111122,1111122' 
DISL,ioos:station:DISL:MHPA:1,2016-06-03T23:00:00Z,30.6671,-87.9365,8.5,5.32,139.6,-9999.0,'1111122,1111122,1111122' 
DISL,ioos:station:DISL:MHPA:1,2016-06-03T23:30:00Z,30.6671,-87.9365,8.5,5.84,134.8,-9999.0,'1111122,1111122,1111122' 
DISL,ioos:station:DISL:MHPA:1,2016-06-04T00:00:00Z,30.6671,-87.9365,8.5,5.52,154.5,-9999.0,'1111122,1111122,1111122' 
DISL,ioos:station:DISL:MHPA:1,2016-06-04T00:30:00Z,30.6671,-87.9365,8.5,3.86,139.1,-9999.0,'1111122,1111122,1111122' 
DISL,ioos:station:DISL:MHPA:1,2016-06-04T01:00:00Z,30.6671,-87.9365,8.5,3.92,134.7,-9999.0,'1111122,1111122,1111122' 
DISL,ioos:station:DISL:MHPA:1,2016-06-04T01:30:00Z,30.6671,-87.9365,8.5,3.41,135.7,-9999.0,'1111122,1111122,1111122' 
DISL,ioos:station:DISL:MHPA:1,2016-06-04T02:00:00Z,30.6671,-87.9365,8.5,2.23,127.3,-9999.0,'1111122,1111122,1111122' 
DISL,ioos:station:DISL:MHPA:1,2016-06-04T02:30:00Z,30.6671,-87.9365,8.5,2.2,118.8,-9999.0,'1111122,1111122,1111122' 
DISL,ioos:station:DISL:MHPA:1,2016-06-04T03:00:00Z,30.6671,-87.9365,8.5,2.46,129.9,-9999.0,'1111122,1111122,1111122' 
DISL,ioos:station:DISL:MHPA:1,2016-06-04T03:30:00Z,30.6671,-87.9365,8.5,1.93,108.4,-9999.0,'1111122,1111122,1111122' 
DISL,ioos:station:DISL:MHPA:1,2016-06-04T04:00:00Z,30.6671,-87.9365,8.5,1.88,116.0,-9999.0,'1111122,1111122,1111122' 
DISL,ioos:station:DISL:MHPA:1,2016-06-04T04:30:00Z,30.6671,-87.9365,8.5,2.01,103.7,-9999.0,'1111122,1111122,1111122' 
DISL,ioos:station:DISL:MHPA:1,2016-06-04T05:00:00Z,30.6671,-87.9365,8.5,0.77,98.3,-9999.0,'1111122,1111122,1111122' 
DISL,ioos:station:DISL:MHPA:1,2016-06-04T05:30:00Z,30.6671,-87.9365,8.5,1.5,332.5,-9999.0,'1111122,1111122,1111122' 
DISL,ioos:station:DISL:MHPA:1,2016-06-04T06:00:00Z,30.6671,-87.9365,8.5,1.64,318.8,-9999.0,'1111122,1111122,1111122' 
DISL,ioos:station:DISL:MHPA:1,2016-06-04T06:30:00Z,30.6671,-87.9365,8.5,2.18,46.91,-9999.0,'1111122,1111122,1111122' 
DISL,ioos:station:DISL:MHPA:1,2016-06-04T07:00:00Z,30.6671,-87.9365,8.5,2.14,61.03,-9999.0,'1111122,1111122,1111122' 
DISL,ioos:station:DISL:MHPA:1,2016-06-04T07:30:00Z,30.6671,-87.9365,8.5,1.68,9.07,-9999.0,'1111122,1111122,1111122' 
DISL,ioos:station:DISL:MHPA:1,2016-06-04T08:00:00Z,30.6671,-87.9365,8.5,2.77,91.5,-9999.0,'1111122,1111122,1111122' 
DISL,ioos:station:DISL:MHPA:1,2016-06-04T08:30:00Z,30.6671,-87.9365,8.5,3.24,71.54,-9999.0,'1111122,1111122,1111122' 
DISL,ioos:station:DISL:MHPA:1,2016-06-04T09:00:00Z,30.6671,-87.9365,8.5,2.95,99.1,-9999.0,'1111122,1111122,1111122' 
DISL,ioos:station:DISL:MHPA:1,2016-06-04T09:30:00Z,30.6671,-87.9365,8.5,2.98,77.88,-9999.0,'1111122,1111122,1111122' 
DISL,ioos:station:DISL:MHPA:1,2016-06-04T10:00:00Z,30.6671,-87.9365,8.5,1.87,105.6,-9999.0,'1111122,1111122,1111122' 
DISL,ioos:station:DISL:MHPA:1,2016-06-04T10:30:00Z,30.6671,-87.9365,8.5,2.76,115.8,-9999.0,'1111122,1111122,1111122' 
DISL,ioos:station:DISL:MHPA:1,2016-06-04T11:00:00Z,30.6671,-87.9365,8.5,2.06,98.9,-9999.0,'1111122,1111122,1111122' 
DISL,ioos:station:DISL:MHPA:1,2016-06-04T11:30:00Z,30.6671,-87.9365,8.5,2.35,80.6,-9999.0,'1111122,1111122,1111122' 
DISL,ioos:station:DISL:MHPA:1,2016-06-04T12:00:00Z,30.6671,-87.9365,8.5,3.0,84.1,-9999.0,'1111122,1111122,1111122' 
DISL,ioos:station:DISL:MHPA:1,2016-06-04T12:30:00Z,30.6671,-87.9365,8.5,2.72,95.4,-9999.0,'1111122,1111122,1111122' 
DISL,ioos:station:DISL:MHPA:1,2016-06-04T13:00:00Z,30.6671,-87.9365,8.5,2.0,116.1,-9999.0,'1111122,1111122,1111122' 
DISL,ioos:station:DISL:MHPA:1,2016-06-04T13:30:00Z,30.6671,-87.9365,8.5,3.57,112.6,-9999.0,'1111122,1111122,1111122' 
DISL,ioos:station:DISL:MHPA:1,2016-06-04T14:00:00Z,30.6671,-87.9365,8.5,3.02,108.8,-9999.0,'1111122,1111122,1111122' 
DISL,ioos:station:DISL:MHPA:1,2016-06-04T14:30:00Z,30.6671,-87.9365,8.5,3.04,109.1,-9999.0,'1111122,1111122,1111122' 
DISL,ioos:station:DISL:MHPA:1,2016-06-04T15:00:00Z,30.6671,-87.9365,8.5,3.7,114.1,-9999.0,'1111122,1111122,1111122' 
DISL,ioos:station:DISL:MHPA:1,2016-06-04T15:30:00Z,30.6671,-87.9365,8.5,4.43,124.9,-9999.0,'1111122,1111122,1111122' 
DISL,ioos:station:DISL:MHPA:1,2016-06-04T16:00:00Z,30.6671,-87.9365,8.5,5.29,137.8,-9999.0,'1111122,1111122,1111122' 
DISL,ioos:station:DISL:MHPA:1,2016-06-04T16:30:00Z,30.6671,-87.9365,8.5,3.54,160.8,-9999.0,'1111122,1111122,1111122' 
DISL,ioos:station:DISL:MHPA:1,2016-06-04T17:00:00Z,30.6671,-87.9365,8.5,4.48,173.8,-9999.0,'1111122,1111122,1111122' 
DISL,ioos:station:DISL:MHPA:1,2016-06-04T17:30:00Z,30.6671,-87.9365,8.5,6.02,174.3,-9999.0,'1111122,1111122,1111122' 
DISL,ioos:station:DISL:MHPA:1,2016-06-04T18:00:00Z,30.6671,-87.9365,8.5,4.67,181.2,-9999.0,'1111122,1111122,1111122' 
DISL,ioos:station:DISL:MHPA:1,2016-06-04T18:30:00Z,30.6671,-87.9365,8.5,4.84,182.7,-9999.0,'1111122,1111122,1111122' 
DISL,ioos:station:DISL:MHPA:1,2016-06-04T19:00:00Z,30.6671,-87.9365,8.5,5.75,181.5,-9999.0,'1111122,1111122,1111122' 
DISL,ioos:station:DISL:MHPA:1,2016-06-04T19:30:00Z,30.6671,-87.9365,8.5,6.06,179.7,-9999.0,'1111122,1111122,1111122' 
DISL,ioos:station:DISL:MHPA:1,2016-06-04T20:00:00Z,30.6671,-87.9365,8.5,6.39,168.8,-9999.0,'1111122,1111122,1111122' 
DISL,ioos:station:DISL:MHPA:1,2016-06-04T20:30:00Z,30.6671,-87.9365,8.5,9.03,166.7,-9999.0,'1111122,1111122,1111122' 
DISL,ioos:station:DISL:MHPA:1,2016-06-04T21:00:00Z,30.6671,-87.9365,8.5,4.9,155.1,-9999.0,'1111122,1111122,1111122' 
DISL,ioos:station:DISL:MHPA:1,2016-06-04T21:30:00Z,30.6671,-87.9365,8.5,6.37,185.7,-9999.0,'1111122,1111122,1111122' 
DISL,ioos:station:DISL:MHPA:1,2016-06-04T22:00:00Z,30.6671,-87.9365,8.5,6.2,184.2,-9999.0,'1111122,1111122,1111122' 
DISL,ioos:station:DISL:MHPA:1,2016-06-04T22:30:00Z,30.6671,-87.9365,8.5,4.77,150.1,-9999.0,'1111122,1111122,1111122' 
DISL,ioos:station:DISL:MHPA:1,2016-06-04T23:00:00Z,30.6671,-87.9365,8.5,4.05,149.7,-9999.0,'1111122,1111122,1111122' 
DISL,ioos:station:DISL:MHPA:1,2016-06-04T23:30:00Z,30.6671,-87.9365,8.5,3.66,145.6,-9999.0,'1111122,1111122,1111122' 
DISL,ioos:station:DISL:MHPA:1,2016-06-05T00:00:00Z,30.6671,-87.9365,8.5,2.43,158.6,-9999.0,'1111122,1111122,1111122' 
DISL,ioos:station:DISL:MHPA:1,2016-06-05T00:30:00Z,30.6671,-87.9365,8.5,4.46,272.3,-9999.0,'1111122,1111122,1111122' 
DISL,ioos:station:DISL:MHPA:1,2016-06-05T01:00:00Z,30.6671,-87.9365,8.5,3.61,296.8,-9999.0,'1111122,1111122,1111122' 
DISL,ioos:station:DISL:MHPA:1,2016-06-05T01:30:00Z,30.6671,-87.9365,8.5,2.93,345.6,-9999.0,'1111122,1111122,1111122' 
DISL,ioos:station:DISL:MHPA:1,2016-06-05T02:00:00Z,30.6671,-87.9365,8.5,1.29,12.45,-9999.0,'1111122,1111122,1111122' 
DISL,ioos:station:DISL:MHPA:1,2016-06-05T02:30:00Z,30.6671,-87.9365,8.5,1.37,18.22,-9999.0,'1111122,1111122,1111122' 
DISL,ioos:station:DISL:MHPA:1,2016-06-05T03:00:00Z,30.6671,-87.9365,8.5,1.38,17.7,-9999.0,'1111122,1111122,1111122' 
DISL,ioos:station:DISL:MHPA:1,2016-06-05T03:30:00Z,30.6671,-87.9365,8.5,1.78,35.04,-9999.0,'1111122,1111122,1111122' 
DISL,ioos:station:DISL:MHPA:1,2016-06-05T04:00:00Z,30.6671,-87.9365,8.5,1.2,28.53,-9999.0,'1111122,1111122,1111122' 
DISL,ioos:station:DISL:MHPA:1,2016-06-05T04:30:00Z,30.6671,-87.9365,8.5,1.17,67.92,-9999.0,'1111122,1111122,1111122' 